[[{"header":{"parameterUnit":"m.s-1","parameterCategory":1,"la1":30.2991,"la2":30.254,"lo1":-89.0895,"lo2":-89.0444,"dy":0.0017,"dx":0.0017,"nx":28,"ny":28,"refTime":"2024-03-28T21:00:00:Z","depth":0,"parameterNumber":2,"parameterNumberName":"U-component_of_WINDS"},"data":[0,0,0,0,0,0,0,0,0,0,0,0,0,0,0,0,0,0,0,0,0,0,0,0,0,0,0,0,0,0,0,0,0,0,0,0,0,0,0,0,0,0,0,0,0,0,0,0,0,0,0,0,0,0,0,0,0,0,-4.3331,-4.3331,0,-4.3347,-4.3347,-4.3347,-4.3252,-4.3249,-4.3247,-4.3244,-4.3262,-4.3265,-4.3268,0,0,0,0,0,0,0,0,0,0,0,0,0,-4.3221,-4.3223,-4.3331,-4.3331,-4.3331,-4.3347,-4.3347,-4.3347,-4.3253,-4.3249,-4.3246,-4.3243,-4.3261,-4.3265,-4.3268,0,0,0,0,0,0,0,0,0,0,0,0,0,-4.3256,-4.3224,-4.3331,-4.3286,-4.3282,-4.3347,-4.3347,-4.3347,-4.3253,-4.3249,-4.3245,-4.3241,-4.326,-4.3264,-4.3269,-4.3378,0,0,-4.3283,-4.3285,0,0,0,0,0,0,0,0,-4.3254,-4.326,-4.3292,-4.3289,-4.3285,-4.3293,-4.3315,-4.3358,-4.3254,-4.3264,-4.3244,-4.3239,-4.3276,-4.3279,-4.3291,-4.3379,-4.338,-4.3283,-4.3286,-4.3288,-4.3289,0,0,0,0,0,0,0,-4.3252,-4.3259,-4.3337,-4.3293,-4.3288,-4.3266,-4.3266,-4.3322,-4.3293,-4.3263,-4.3256,-4.3259,-4.3273,-4.3287,-4.3291,-4.338,-4.3283,-4.3287,-4.329,-4.3292,-4.3561,-4.3565,0,0,0,0,0,0,-4.3255,-4.3257,-4.3337,-4.3338,-4.3259,-4.3271,-4.3271,-4.3295,-4.3292,-4.3288,-4.3263,-4.3255,-4.3281,-4.3285,-4.3291,-4.342,-4.3288,-4.3292,-4.3295,-4.3556,-4.3562,-4.3567,0,0,0,0,0,0,-4.3253,-4.3263,-4.3336,-4.3296,-4.3303,-4.3277,-4.3304,-4.3297,-4.3311,-4.3292,-4.3286,-4.3282,-4.3278,-4.3285,-4.3358,-4.3419,-4.3294,-4.3298,-4.3551,-4.3558,-4.3564,-4.3679,0,0,0,0,0,0,-4.325,-4.3263,-4.3303,-4.3297,-4.3306,-4.3402,-4.3308,-4.33,-4.3318,-4.3308,-4.3308,-4.3304,-4.3275,-4.3351,-4.3362,-4.3423,-4.3302,-4.3545,-4.3554,-4.3562,-4.3669,-4.3689,-4.3705,0,0,0,0,0,-4.3247,-4.3335,-4.3306,-4.3316,-4.3356,-4.3406,-4.3411,-4.3375,-4.3324,-4.3365,-4.3353,-4.3304,-4.3411,-4.336,-4.3371,-4.3435,-4.3541,-4.3552,-4.3561,-4.3661,-4.3685,-4.3705,0,0,0,0,0,0,-4.3349,-4.3333,-4.3301,-4.339,-4.34,-4.339,-4.344,-4.3401,-4.3426,-4.3415,-4.337,-4.3371,-4.3452,-4.345,-4.3394,-4.3541,-4.3467,-4.348,-4.354,-4.3562,-4.3579,-4.3578,-4.3305,0,0,0,0,0,-4.3382,-4.3423,-4.3407,-4.3487,-4.3494,-4.3467,-4.3487,-4.3459,-4.3467,-4.3471,-4.3464,-4.3476,-4.3511,-4.3536,-4.3568,-4.3668,-4.3668,-4.3718,-4.3736,-4.375,-4.3762,-4.3817,-4.384,-4.3599,-4.3599,-4.3599,0,0,-4.3451,-4.3447,-4.3476,-4.3508,-4.3512,-4.3557,-4.3471,-4.3521,-4.3554,-4.3479,-4.3548,-4.3544,-4.3553,-4.3641,-4.3679,-4.3642,-4.3828,-4.3763,-4.3775,-4.3779,-4.383,-4.3853,-4.3873,-4.3606,-4.3605,-4.3604,0,0,-4.3599,-4.3599,-4.3667,-4.3673,-4.3681,-4.3663,-4.3679,-4.3675,-4.3669,-4.3738,-4.3683,-4.3722,-4.3784,-4.3794,-4.3807,-4.396,-4.3917,-4.3972,-4.4065,-4.4119,-4.4138,-4.4155,-4.4211,-4.4232,-4.3983,-4.3984,-4.3984,0,-4.3683,-4.3747,-4.3707,-4.3762,-4.3778,-4.3712,-4.3781,-4.3789,-4.3808,-4.3821,-4.3778,-4.3857,-4.3858,-4.3948,-4.3986,-4.3998,-4.4017,-4.3972,-4.4138,-4.4155,-4.417,-4.4223,-4.4244,-4.399,-4.399,-4.3989,-4.3988,0,-4.3852,-4.3898,-4.3951,-4.3971,-4.3993,-4.4055,-4.4025,-4.4052,-4.4023,-4.4009,-4.408,-4.408,-4.4111,-4.413,-4.4101,-4.4217,-4.4194,-4.4146,-4.4071,-4.42,-4.4249,-4.4269,-4.4,-4.3998,-4.3996,-4.3994,0,0,-4.4065,-4.4062,-4.4082,-4.4091,-4.4095,-4.413,-4.419,-4.422,-4.4246,-4.4261,-4.4311,-4.4366,-4.4322,-4.4337,-4.4308,-4.4356,-4.448,-4.4302,-4.4301,-4.4336,-4.4609,-4.4646,-4.4671,-4.4451,-4.4454,-4.4457,-4.4609,0,-4.4211,-4.4311,-4.4277,-4.438,-4.4423,-4.4361,-4.4413,-4.4422,-4.4411,-4.4447,-4.4434,-4.4475,-4.4413,-4.4422,-4.4466,-4.4455,-4.4534,-4.4444,-4.4498,-4.45,-4.4499,-4.4696,-4.4735,-4.4878,-4.4628,-4.4631,-4.4633,0,-4.4394,-4.4417,-4.4525,-4.4523,-4.454,-4.4587,-4.4613,-4.4647,-4.4657,-4.4646,-4.4663,-4.4626,-4.4685,-4.4609,-4.4692,-4.4631,-4.4651,-4.465,-4.4654,-4.4659,-4.4576,-4.4708,-4.4923,-4.4945,-4.4663,-4.4661,-4.4658,0,-4.4541,-4.4599,-4.4671,-4.468,-4.4679,-4.4715,-4.4716,-4.4721,-4.4743,-4.4766,-4.4779,-4.4809,-4.4826,-4.4851,-4.4823,-4.477,-4.491,-4.4832,-4.4904,-4.4905,-4.4937,-4.4936,-4.516,-4.4948,-4.4948,-4.4947,-4.4947,0,-4.4709,-4.4777,-4.4737,-4.4781,-4.4857,-4.4817,-4.4893,-4.4888,-4.4894,-4.4937,-4.4885,-4.4927,-4.4887,-4.4926,-4.4904,-4.4977,-4.4984,-4.4978,-4.4972,-4.4984,-4.4985,-4.4997,-4.4987,-4.4953,-4.4952,-4.4951,-4.495,0,-4.4886,-4.4861,-4.4936,-4.493,-4.493,-4.4986,-4.4981,-4.5023,-4.5008,-4.5064,-4.5075,-4.5053,-4.5096,-4.507,-4.5114,-4.5099,-4.5195,-4.5174,-4.5191,-4.5186,-4.5261,-4.5255,-4.5502,-4.5534,-4.53,-4.5302,-4.5304,0,-4.4995,-4.5046,-4.5046,-4.5071,-4.5076,-4.5117,-4.5139,-4.5102,-4.5127,-4.5143,-4.5183,-4.5221,-4.525,-4.5322,-4.5311,-4.5345,-4.5325,-4.541,-4.533,-4.5341,-4.5329,-4.5327,-4.5333,-4.5426,-4.5429,-4.5431,-4.5433,0,-4.5192,-4.5177,-4.521,-4.524,-4.5267,-4.5288,-4.5305,-4.5329,-4.5292,-4.5323,-4.5366,-4.5389,-4.5434,-4.5474,-4.5503,-4.5505,-4.5465,-4.5458,-4.5477,-4.549,-4.5499,-4.5497,-4.5237,-4.5453,-4.5451,-4.5449,-4.5448,-4.5448,-4.5339,-4.5383,-4.539,-4.5428,-4.5437,-4.5455,-4.5494,-4.5485,-4.552,-4.5554,-4.553,-4.5583,-4.5592,-4.5627,-4.5635,-4.5676,-4.5642,-4.5669,-4.5676,-4.5683,-4.5695,-4.5492,-4.5681,-4.568,-4.568,-4.5679,-4.5679,0,-4.5535,-4.5536,-4.5572,-4.5598,-4.5629,-4.5587,-4.5604,-4.5633,-4.568,-4.5692,-4.5722,-4.5773,-4.5811,-4.5803,-4.5838,-4.5873,-4.5855,-4.5883,-4.5881,-4.5883,-4.5722,-4.5703,-4.5897,-4.5897,-4.5897,-4.5897,-4.5897,-4.5897,-4.564,-4.5712,-4.5699,-4.5776,-4.5777,-4.5827,-4.5841,-4.5857,-4.5867,-4.5926,-4.5958,-4.5952,-4.5957,-4.5992,-4.6026,-4.6023,-4.6039,-4.6075,-4.6066,-4.5916,-4.5894,-4.5873,-4.5855,-4.6079,-4.6079,-4.6223,-4.6224,-4.6226]},{"header":{"parameterUnit":"m.s-1","parameterCategory":1,"la1":30.2991,"la2":30.254,"lo1":-89.0895,"lo2":-89.0444,"dy":0.0017,"dx":0.0017,"nx":28,"ny":28,"refTime":"2024-03-28T21:00:00:Z","depth":0,"parameterNumber":3,"parameterNumberName":"V-component_of_WINDS"},"data":[0,0,0,0,0,0,0,0,0,0,0,0,0,0,0,0,0,0,0,0,0,0,0,0,0,0,0,0,0,0,0,0,0,0,0,0,0,0,0,0,0,0,0,0,0,0,0,0,0,0,0,0,0,0,0,0,0,0,0.3943,0.3943,0,0.3926,0.3925,0.3925,0.3933,0.3933,0.3934,0.3934,0.3914,0.3913,0.3912,0,0,0,0,0,0,0,0,0,0,0,0,0,0.3982,0.3981,0.3943,0.3943,0.3943,0.3926,0.3925,0.3925,0.3933,0.3933,0.3934,0.3934,0.3914,0.3913,0.3912,0,0,0,0,0,0,0,0,0,0,0,0,0,0.3965,0.3981,0.3943,0.3945,0.3945,0.3926,0.3925,0.3925,0.3933,0.3933,0.3934,0.3935,0.3914,0.3913,0.3912,0.389,0,0,0.3907,0.3907,0,0,0,0,0,0,0,0,0.3966,0.3963,0.3945,0.3944,0.3944,0.3932,0.3932,0.3913,0.3933,0.3937,0.3934,0.3935,0.3919,0.3917,0.3913,0.3889,0.3888,0.3907,0.3906,0.3906,0.3905,0,0,0,0,0,0,0,0.3967,0.3964,0.3936,0.3944,0.3944,0.3946,0.3944,0.3928,0.3925,0.3937,0.3937,0.3935,0.3919,0.3914,0.3912,0.3888,0.3907,0.3906,0.3905,0.3905,0.3846,0.3845,0,0,0,0,0,0,0.3968,0.3965,0.3937,0.3936,0.3957,0.3944,0.3942,0.3935,0.3925,0.3924,0.3935,0.3936,0.3916,0.3914,0.3912,0.3886,0.3906,0.3904,0.3904,0.3846,0.3846,0.3845,0,0,0,0,0,0,0.3969,0.3966,0.3937,0.395,0.3947,0.3943,0.3935,0.3935,0.393,0.3923,0.3923,0.393,0.3917,0.3914,0.3896,0.3885,0.3904,0.3902,0.3847,0.3846,0.3845,0.3834,0,0,0,0,0,0,0.397,0.3966,0.3958,0.395,0.3946,0.3922,0.3934,0.3934,0.3927,0.3928,0.3919,0.3918,0.3917,0.3898,0.3894,0.3884,0.3901,0.3848,0.3847,0.3846,0.3835,0.3832,0.383,0,0,0,0,0,0.3971,0.3954,0.3957,0.3954,0.3936,0.3922,0.3919,0.3919,0.3926,0.3918,0.3914,0.3918,0.3887,0.3896,0.3892,0.3881,0.3849,0.3847,0.3846,0.3836,0.3833,0.383,0,0,0,0,0,0,0.396,0.3953,0.3957,0.3937,0.393,0.3923,0.3912,0.3916,0.3906,0.3907,0.3907,0.3904,0.3886,0.3881,0.3891,0.3859,0.3869,0.3866,0.3863,0.386,0.3858,0.3859,0.39,0,0,0,0,0,0.3955,0.3944,0.3939,0.3922,0.3919,0.3916,0.391,0.3911,0.3903,0.39,0.3894,0.3886,0.3875,0.3867,0.3856,0.3835,0.3833,0.3825,0.3823,0.3821,0.3818,0.3807,0.3804,0.384,0.384,0.384,0,0,0.3945,0.394,0.3933,0.392,0.3914,0.3903,0.3914,0.3901,0.3892,0.3897,0.3881,0.3876,0.3867,0.3848,0.3839,0.3843,0.3808,0.3819,0.3817,0.3816,0.3805,0.3802,0.3799,0.3839,0.3839,0.3839,0,0,0.3921,0.3916,0.3902,0.3897,0.3889,0.3888,0.3884,0.3877,0.3875,0.3858,0.3862,0.3852,0.3831,0.3825,0.3819,0.3794,0.3797,0.379,0.3777,0.3767,0.3764,0.3761,0.3753,0.375,0.3788,0.3788,0.3788,0,0.3909,0.3892,0.3894,0.3881,0.3875,0.3881,0.3866,0.3861,0.385,0.3845,0.3851,0.3826,0.3821,0.38,0.3794,0.3789,0.3785,0.3791,0.3764,0.3762,0.376,0.3751,0.3748,0.3787,0.3787,0.3787,0.3788,0,0.3879,0.3867,0.3857,0.3847,0.384,0.3826,0.3825,0.3818,0.3819,0.3817,0.38,0.3794,0.3782,0.3777,0.3778,0.3756,0.376,0.3765,0.3774,0.3755,0.3748,0.3744,0.3786,0.3786,0.3787,0.3787,0,0,0.3846,0.3838,0.3834,0.383,0.3823,0.3813,0.38,0.379,0.3783,0.3775,0.3764,0.3748,0.3753,0.3746,0.3747,0.3737,0.3718,0.3743,0.3743,0.3739,0.3695,0.3691,0.3687,0.372,0.372,0.3719,0.3696,0,0.3822,0.3799,0.3801,0.378,0.3769,0.3775,0.3763,0.3757,0.3755,0.3746,0.3743,0.3732,0.3739,0.3735,0.3726,0.3722,0.3709,0.3724,0.371,0.3709,0.3712,0.3683,0.3679,0.3657,0.3693,0.3692,0.3692,0,0.379,0.3783,0.3761,0.3756,0.3751,0.3741,0.3732,0.3723,0.3716,0.3715,0.3708,0.3711,0.3697,0.3707,0.3688,0.3698,0.3693,0.369,0.3689,0.3688,0.3699,0.3681,0.365,0.3647,0.3687,0.3687,0.3687,0,0.3769,0.3753,0.3739,0.3735,0.3728,0.3721,0.3718,0.3712,0.3706,0.3697,0.3694,0.3683,0.3678,0.367,0.3669,0.3676,0.365,0.366,0.3649,0.3649,0.3643,0.3643,0.3611,0.3639,0.3639,0.3639,0.3639,0,0.3742,0.3729,0.3729,0.372,0.3706,0.3707,0.3692,0.369,0.3684,0.3675,0.3678,0.3669,0.3668,0.3658,0.3658,0.3642,0.364,0.3638,0.3638,0.3638,0.3638,0.3634,0.3636,0.3638,0.3638,0.3638,0.3639,0,0.3716,0.3716,0.3701,0.3696,0.3695,0.3684,0.368,0.3671,0.367,0.3657,0.3654,0.3652,0.3641,0.3639,0.3626,0.3625,0.3607,0.3608,0.361,0.361,0.3599,0.36,0.3563,0.3558,0.3589,0.3589,0.3588,0,0.3699,0.3689,0.3684,0.3678,0.3675,0.3665,0.366,0.3661,0.3654,0.3646,0.3639,0.3628,0.362,0.3601,0.3598,0.3588,0.3589,0.3577,0.3587,0.3588,0.3589,0.359,0.3589,0.3575,0.3574,0.3574,0.3574,0,0.3669,0.3669,0.3661,0.3653,0.3647,0.364,0.3634,0.3629,0.3629,0.3622,0.3611,0.3605,0.3592,0.3581,0.3572,0.3568,0.3571,0.357,0.3567,0.3567,0.3569,0.3568,0.3604,0.3571,0.3571,0.3572,0.3572,0.3572,0.3647,0.3639,0.3634,0.3625,0.3621,0.3615,0.3607,0.3605,0.3597,0.3587,0.3588,0.3576,0.357,0.3557,0.3553,0.3543,0.3547,0.3543,0.3541,0.354,0.354,0.357,0.3541,0.3541,0.3541,0.3541,0.3542,0,0.3617,0.3615,0.3607,0.3599,0.3592,0.3596,0.359,0.3584,0.3574,0.3568,0.356,0.3548,0.3538,0.3534,0.3524,0.3517,0.3518,0.3515,0.3515,0.3514,0.3536,0.354,0.3514,0.3514,0.3514,0.3514,0.3514,0.3514,0.3601,0.3587,0.3588,0.3572,0.357,0.3559,0.3555,0.355,0.3546,0.3533,0.3525,0.3523,0.3518,0.3508,0.3499,0.3498,0.3494,0.349,0.3489,0.351,0.3513,0.3515,0.3519,0.3489,0.3489,0.3468,0.3468,0.3468]}]]